Location: Chatou
(48.8898°N, 2.1586°E)
Time: 00:31:54
(UTC+00:00)

STRAND 1 - Pass Details

Date: 12 December 2023
Orbit: 766 x 778 km, 98.4° (Epoch: 03 March)

Event Time Altitude Azimuth Distance (km) Brightness Sun altitude
Rises 03:29:59 0° 104° (ESE) 3,236 ? -39.1°
Reaches altitude 10° 03:33:39 10° 77° (ENE) 2,313 ? -38.5°
Maximum altitude 03:35:45 13° 52° (NE) 2,136 ? -38.2°
Drops below altitude 10° 03:37:50 10° 28° (NNE) 2,317 ? -37.8°
Enters shadow 03:38:37 - 20° (NNE) 2,462 ? -37.7°
